Regional Weather Roundup
Issued by NWS Grand Forks, ND

Home | Current Version | Previous Version | Graphics & Text | Print | Product List | Glossary On
Versions: 1 2 3 4 5 6 7 8 9 10 11 12 13 14 15 16 17 18 19 20 21 22 23 24 25 26 27 28 29 30 31 32 33 34 35 36 37 38 39 40 41 42 43 44 45 46 47 48 49 50
000
ASUS43 KFGF 280810
RWRFGF
PRAIRIE TO PINES  WEATHER ROUNDUP
NATIONAL WEATHER SERVICE EASTERN NORTH DAKOTA/GRAND FORKS ND
200 AM CST FRI NOV 28 2014

 **SATELLITE DATA USED TO AUGMENT SKY COVER AT AUTOMATED STATIONS**
 *****  WEATHER ACROSS EASTERN NORTH DAKOTA  *****

CITY           SKY/WX    TMP DP  RH WIND       PRES   REMARKS
GRAND FORKS    CLOUDY    10   6  84 SE9       30.06F WCI  -3
GRAND FRKS AFB CLOUDY     9   5  85 SE6       30.06F WCI  -1
GRAND FRKS NWS   N/A     10 N/A N/A SE6         N/A  WCI   1
DEVILS LAKE    CLOUDY     9  -2  61 SE12      29.93F WCI  -6
FARGO          CLOUDY    12   6  77 SE13      30.03F HAZE    WCI  -3
WAHPETON ARPT  CLOUDY    10   5  79 SE14G23   30.03F WCI  -5
$$

 ***** WEATHER ACROSS CENTRAL AND WESTERN NORTH DAKOTA  *****

CITY           SKY/WX    TMP DP  RH WIND       PRES   REMARKS
BISMARCK       PTCLDY     7   4  87 E8        29.86F WCI  -6
MINOT          CLOUDY     9   4  80 E12       29.86F WCI  -6
JAMESTOWN      CLOUDY     7   3  84 SE10      29.91F FOG     WCI  -8
MINOT AFB      CLOUDY     9   6  87 SE12      29.88F WCI  -6
GARRISON         N/A     11   7  84 E12       29.82F WCI  -3
WILLISTON      CLOUDY    16  13  88 SE5       29.79R WCI   9
DICKINSON      MIX PCPN  20  17  88 NE7       29.71R WCI  11
HETTINGER      PTCLDY    23  20  88 NW5       29.72F WCI  17
$$

 *****  OTHER AIRPORT OBSERVATIONS IN OUR AREA  *****

CITY           SKY/WX    TMP DP  RH WIND       PRES   REMARKS
WALHALLA         N/A      7   5  92 E5        30.07S WCI  -2
GRAFTON AIRPOR CLOUDY     9   5  85 S7        30.09R WCI  -3
VALLEY CITY AR CLOUDY     7   5  92 SE15      29.95F WCI -11
CANDO          CLOUDY     9   5  85 E10       29.96F WCI  -6
CAVALIER APRT  PTSUNNY    9   5  85 SE6       30.09R WCI  -1
GWINNER        CLOUDY     9   3  78 SE16      29.95F WCI  -9
SHEYENNE NWR     N/A      8   3  78 SE13      29.95S WCI  -8
ROLLA          FLURRIES   7   3  85 E9        29.93F WCI  -7
 ***** THE ABOVE OBSERVATIONS ARE NON NWS ARE NOT QUALITY
       CONTROLLED AND MAY MIS-REPORT RAIN FOR SNOW...
$$

  *****  WEATHER ACROSS NORTHERN MINNESOTA  *****

CITY           SKY/WX    TMP DP  RH WIND       PRES   REMARKS
FLAG ISLAND    MOCLDY     3  -2  78 E5        30.11F WCI  -6
WARROAD        CLOUDY     7   1  78 E5        30.10F WCI  -2
ROSEAU         CLOUDY     9   1  72 E5        30.09F WCI   0
HALLOCK        FLURRIES   9   3  78 SE5       30.09R WCI   0
THF RVR FALLS  CLOUDY    10   5  79 E9        30.05F WCI  -2
BAUDETTE       CLOUDY     5  -2  72 SE6       30.10F WCI  -6
WASKISH        CLOUDY     9   1  72 CALM      30.10F
CROOKSTON      FLURRIES  10   7  85 SE8       30.07F WCI  -1
STEPHEN NDAWN    N/A     10   5  79 SE8         N/A  WCI  -1
GREENBUSH NDAW   N/A      9   3  78 SE7         N/A  WCI  -3
$$
  *****  WEATHER ACROSS CENTRAL AND WEST MINNESOTA  *****

CITY           SKY/WX    TMP DP  RH WIND       PRES   REMARKS
FOSSTON        CLOUDY     7   3  85 E6        30.04F WCI  -3
BEMIDJI        CLOUDY     7   1  79 SE7       30.06F WCI  -5
PARK RAPIDS    FLURRIES   6   2  83 SE9       30.04F WCI  -8
ELBOW LAKE     CLOUDY     8   3  79 SE16G22   30.02F HAZE    WCI  -9
WADENA         LGT SNOW   5   1  85 SE10      30.04F WCI -10
DETROIT LAKES  LGT SNOW  10   5  79 SE12      30.02F WCI  -4
MOORHEAD       MIX PCPN  12  10  92 SE7       30.04F WCI   2
FERGUS FALLS   CLOUDY     9   3  78 SE15      30.06F WCI  -8
MORRIS MN      MOCLDY     9   1  72 SE22      30.02F WCI -11
STAPLES        LGT SNOW   5   1  85 SE6       30.07F WCI  -6
$$
  *****  WEATHER ELSEWHERE ACROSS MINNESOTA  *****

CITY           SKY/WX    TMP DP  RH WIND       PRES   REMARKS
DULUTH         CLOUDY     7  -4  60 S7        30.14F WCI  -5
INTRNTL FALLS  CLOUDY     2  -4  76 SE6       30.13F WCI  -9
ELY            CLOUDY     3  -4  72 S3        30.15S
CLOQUET        LGT SNOW   7   0  72 CALM      30.15F
WHEATON        CLOUDY     7   1  78 SE22      30.04F WCI -14
BRAINERD       CLOUDY     6   2  83 SE7       30.10F WCI  -6
HIBBING        FLURRIES   7  -3  64 SE3       30.14F
ALEXANDRIA     CLOUDY     7   2  80 SE13      30.04F WCI  -9
SAINT CLOUD    LGT SNOW   8   2  76 E8        30.12F WCI  -4
MINNEAPOLIS    LGT SNOW   7   4  87 E13       30.20F FOG     WCI  -9
$$

  *****  WEATHER ACROSS SOUTH DAKOTA  *****

CITY           SKY/WX    TMP DP  RH WIND       PRES   REMARKS
SIOUX FALLS    CLEAR     17  12  80 S8        29.94F WCI   7
BROOKINGS      NOT AVBL
WATERTOWN      PTCLDY    13   8  81 SE8       29.90F WCI   2
HURON          PTCLDY    19  13  77 SE10      29.86F WCI   7
SISSETON         N/A      7   3  84 S14       29.99F WCI -10
ABERDEEN       CLEAR     11   5  77 E8        29.90F WCI  -1
MITCHELL       CLEAR     22  16  78 S15       29.87F WCI   9
PIERRE         CLOUDY    20  17  88 CALM      29.79F
MOBRIDGE       CLEAR     12   8  84 E10       29.80F WCI  -1
RAPID CITY     PTCLDY    37  26  64 E6        29.78F
$$

  *****  SOME WEATHER IN NEARBY STATES *****

CITY           SKY/WX    TMP DP  RH WIND       PRES   REMARKS
GLASGOW MT     MOCLDY    22  19  89 E14       29.67F FOG     WCI   9
GREAT FALLS MT MOCLDY    46  35  65 SW18      29.62F
CHEYENNE WY    MOCLDY    52  17  25 W18G29    30.01S
SCOTTSBLUFF NE CLEAR     30  25  81 E6        29.92F WCI  24
OMAHA NE       CLEAR     26  20  77 SE13      30.05F WCI  15
DES MOINES IA  CLOUDY    18  10  71 SE15      30.16F WCI   4
DAVENPORT IA   FLURRIES  15   7  70 SE9       30.33F WCI   3
CHICAGO IL     MOCLDY    19  11  70 CALM      30.37R
EAU CLAIRE WI  LGT SNOW   9   2  73 SE5       30.27S WCI   1
LA CROSSE WI   FLURRIES  14   5  67 SE10      30.29F WCI   1
$$

  *****  SOME NATIONAL WEATHER *****

CITY           SKY/WX    TMP DP  RH WIND       PRES   REMARKS
LA GUARDIA NY  PTCLDY    32  24  72 NW13      30.08R WCI  22
RALEIGH NC     CLEAR     34  20  56 NW5       30.29R
ATLANTA GA     CLEAR     31  22  69 NW9       30.36S WCI  23
NEW ORLEANS LA CLEAR     47  36  65 NE9       30.42S
OKLAHOMA CITY  MOCLDY    46  24  42 S17       30.20F
ALBUQUERQUE NM MOCLDY    42  20  41 NW5       30.31F
SALT LAKE CITY CLOUDY    47  25  42 SE9       30.09F
LOS ANGELES CA CLEAR     60  46  59 E5        30.01S
BOISE ID       MOCLDY    39  39 100 SE7       29.97F FOG
SEATTLE WA     LGT RAIN  55  49  80 SW14G23   29.69F
$$

*** WEATHER ACROSS MANITOBA...SASKATCHEWAN AND ONTARIO ***
                ***ONTARIO***

CITY           SKY/WX    TMP DP  RH WIND       PRES   REMARKS
GERALDTON      PTCLDY   -17 -24  70 S1        30.17
THUNDER BAY    PTCLDY    -2  -6  84 SW5       30.27S WCI -12
SIOUX LOOKOUT  PTCLDY    -6 -11  77 VRB2      30.12F
TORONTO        PTCLDY    21  14  73 W10       30.19R WCI  10
BIG TROUT LK   FLURRIES  -8 -11  84 W7        30.07R WCI -22
PICKLE LAKE    NOT AVBL
DRYDEN         CLEAR     -2  -8  78 S9        30.11S WCI -18
KENORA         MOCLDY     0  -6  78 S5        30.09F WCI -10
$$
                *** MANITOBA***

CITY           SKY/WX    TMP DP  RH WIND       PRES   REMARKS
BRANDON        FLURRIES   9   5  85 E13       30.00F WCI  -7
DAUPHIN        FLURRIES   7   3  85 NE9       30.09F WCI  -7
ISLAND LAKE    CLEAR     -6 -13  71 NW7       30.12S WCI -20
PILOT MOUND      N/A      7   3  85 SE8         N/A  WCI  -6
THE PAS        CLEAR     -8 -13  77 N3        30.19F
THOMPSON       CLEAR    -24 -31  69 NW5       30.17F WCI -38
WINNIPEG       MOCLDY     1  -4  78 S6        30.13S WCI -10
LYNN LAKE      CLEAR    -20 -24  83 W7        30.15F WCI -37
CHURCHILL      CRYSTALS -11 -18  70 W17G25    30.04S BLWGSNOWWCI -35
GILLAM         CLEAR    -17 -24  70 W8        30.12R WCI -34
$$
                ***SASKATCHEWAN***

CITY           SKY/WX    TMP DP  RH WIND       PRES   REMARKS
ESTEVAN        LGT SNOW   9   5  85 E13G22    29.83  DRFTSNOWWCI  -7
KINDERSLEY     LGT SNOW   9   5  85 E26G32    29.70F VSB 5/8 WCI -13
LLOYDMINSTER   LGT SNOW  -2  -6  84 E21G28    29.84F WCI -25
PRINCE ALBERT  FLURRIES   1  -4  78 E16       30.06F WCI -18
REGINA         LGT SNOW  10   7  85 E14       29.82F DRFTSNOWWCI  -5
YORKTON        LGT SNOW   9   5  85 NE9       29.98S WCI  -5
N. BATTLEFORD  LGT SNOW   3   0  85 E22G30    29.90F WCI -19
LA RONGE       CLEAR    -13 -18  77 N6        30.18F WCI -27
SASKATOON      LGT SNOW   3  -2  78 E23G30    29.92F BLWGSNOWWCI -19
SWIFT CURRENT  CLOUDY    14  12  92 E18G24    29.65F WCI  -3
$$
NOTE: THESE ARE AUTOMATED STATIONS WITH LIMITED QUALITY CONTROL
      "FAIR" INDICATES FEW OR NO CLOUDS BELOW 12,000 FEET WITH NO
      SIGNIFICANT WEATHER AND/OR OBSTRUCTIONS TO VISIBILITY.
      SKY/WX - SKY CONDITION AND SIGNIFICANT WEATHER.
      TMP - AIR TEMPERATURE.    DP   - DEWPOINT TEMPERATURE.
      RH  - RELATIVE HUMIDITY.  PRES - PRESSURE.
      HX  - HEAT INDEX.         WCI  - WIND CHILL INDEX.
$



USA.gov is the U.S. government's official web portal to all federal, state and local government web resources and services.